Карточка аэропорта UWLL

Внимание!
Информация на этой странице в стадии наполнения.
Если вы не увидели какой-то информации, или заметили неточность - пожалуйста сообщите нам!
Спасибо!
Команда RU-STAFF
Название аэропортаБаратаевка
Название аэропорта (англ.)Barataevka
Превышение426 ft. (129.8 m.)
Координаты54°16.236', 48°13.416'
Высота перехода4000 ft
Эшелон переходаQNH>=1013hPa:FL50; QNH<1013hPa:FL60; QNH<977hPa:FL70
Коды ответчика1000
Зона ОрВДСамара РПИ (UWWW)
Данные METARUWLL 170730Z 18008MPS CAVOK 17/03 Q1006 R20/090065 NOSIG RMK QFE744/0992
Проноз погоды (TAF)UWLL 170752Z 1709/1809 20006G13MPS 9999 BKN030 TX20/1711Z TN12/1803Z TEMPO 1709/1718 17011G18MPS BKN016CB
NOTAMshow/hide NOTAM
AWOS   TABLE

Информация о ВПП

ВПП Длина ВПП (м.) Покрытие Курс ВПП Частота ILS
023100Бетон19110.3
203100Бетон199111.3

Диспетчерские позиции

Позывной Наименование органа УВД Частота
UWLL_APPУльяновск-Подход127.3
UWLL_GNDУльяновск-Руление121.8
UWLL_R_APPУльяновск-Круг120.8
UWLL_TWRУльяновск-Старт/Посадка120.4



Спутниковое изображение